Regional Weather Roundup
Issued by NWS

Home | Current Version | Previous Version | Text Only | Print | Product List | Glossary On
Versions: 1 2 3 4 5 6 7 8 9 10 11 12 13 14 15 16 17 18 19 20 21 22 23 24 25 26 27 28
000
ASUS46 KPQR 181710
RWROR

OREGON REGIONAL WEATHER ROUNDUP
NATIONAL WEATHER SERVICE PORTLAND OR
1000 AM PDT FRI APR 18 2014

NOTE: "FAIR" INDICATES FEW OR NO CLOUDS BELOW 12,000 FEET WITH
NO SIGNIFICANT WEATHER AND/OR OBSTRUCTIONS TO VISIBILITY.

ORZ001>013-181800-
NORTHWEST OREGON


CITY           SKY/WX    TMP DP  RH WIND       PRES   REMARKS
ASTORIA        PTSUNNY   52  39  61 VRB6      30.14R
NEWPORT        SUNNY     48  46  93 NE6       30.15S
PORTLAND       PTSUNNY   50  42  74 CALM      30.16R
VANCOUVER WA   SUNNY     49  41  74 E5        30.15S
SCAPPOOSE      CLOUDY    47  42  83 CALM      30.15R
HILLSBORO      MOSUNNY   47  40  76 CALM      30.15S
AURORA         MOSUNNY   48  46  93 CALM      30.16S
MCMINNVILLE    MOSUNNY   47  44  90 CALM      30.16S
SALEM          MOSUNNY   50  42  74 MISG      30.13S
CORVALLIS      PTSUNNY   45  43  93 NE5       30.15S
EUGENE         CLOUDY    44  42  93 CALM      30.13S FOG
$$

ORZ021-028-181800-
SOUTHWEST OREGON


CITY           SKY/WX    TMP DP  RH WIND       PRES   REMARKS
NORTH BEND     MOSUNNY   52  46  82 NE6       30.09F
BROOKINGS      MOSUNNY   53  48  83 CALM      30.02F
ROSEBURG       CLOUDY    49  42  77 CALM      30.09F
SEXTON SUMMIT  PTSUNNY   44  41  89 VRB6      30.01F
MEDFORD        PTSUNNY   51  43  74 N5        30.05F
$$

ORZ009-041-181800-
COLUMBIA GORGE


CITY           SKY/WX    TMP DP  RH WIND       PRES   REMARKS
TROUTDALE      PTSUNNY   50  39  66 S5        30.14S
THE DALLES     MOSUNNY   51  38  60 NW13      30.12S
$$

ORZ029>031-042>050-061>064-181800-
EASTERN OREGON


CITY           SKY/WX    TMP DP  RH WIND       PRES   REMARKS
REDMOND        SUNNY     45  28  51 VRB3      30.07S
BEND           SUNNY     45  28  53 CALM      30.07S
KLAMATH FALLS  SUNNY     43  36  76 E8        30.05S
LAKEVIEW       SUNNY     46  32  57 S5        30.06S
HERMISTON      MOSUNNY   52  34  50 W23G31    30.06S
PENDLETON      SUNNY     49  32  52 W23G30    30.04S
MEACHAM        SUNNY     40  25  55 W8G22     30.01S WCI  34
LA GRANDE      MOSUNNY   46  27  46 NW7       30.02S
BAKER CITY     SUNNY     46  29  51 N12       30.02R
BURNS          SUNNY     47  20  34 W9        30.05S
ROME           NOT AVBL
ONTARIO        SUNNY     56  31  38 W6        30.03S
$$



USA.gov is the U.S. government's official web portal to all federal, state and local government web resources and services.